Regional Weather Roundup
Issued by NWS

Home | Current Version | Previous Version | Text Only | Print | Product List | Glossary On
Versions: 1 2 3 4 5 6 7 8 9 10 11 12 13 14 15 16 17 18 19 20 21 22 23 24 25 26 27 28
000
ASUS42 KKEY 160410
RWRKEY

FLORIDA REGIONAL WEATHER ROUNDUP FOR THE FLORIDA KEYS
NATIONAL WEATHER SERVICE KEY WEST FLORIDA
1200 AM EDT WED APR 16 2014

...SOUTH FLORIDA AND THE KEYS...

CITY           SKY/WX    TMP DP  RH WIND       PRES   REMARKS
FORT MYERS     CLOUDY    71  67  87 NW9       29.95R
SW REGIONAL AP CLOUDY    71  66  84 NW8       29.95R
NAPLES         CLOUDY    73  72  96 NW8       29.95R
MIAMI          MOCLDY    77  72  84 SW5       29.95R
WEST KENDALL   PTCLDY    73  73 100 W3        29.95R
HOMESTEAD      MOCLDY    74  69  84 SW5       29.95R
MARATHON       CLOUDY    78  73  84 CALM      29.94S
BOCA CHICA NAS CLOUDY    78  72  81 W3        29.96R
KEY WEST INTL  CLOUDY    78  73  84 W6        29.96R

...INTERNATIONAL WEATHER...

CITY           SKY/WX    TMP DP  RH WIND       PRES   REMARKS
NASSAU BAHAMAS MOCLDY    77  72  83 SE5       29.99R
CANCUN MEXICO  PTCLDY    77  73  88 SE3       29.94R
COZUMEL MEXICO PTCLDY    73  73 100 CALM      29.94R

ADJACENT COASTAL WATERS...

STATION/POSITION TIME  SKY/WX   TEMP    WIND        PRES    WAVE
                                AIR SEA DIR/SP/G            HT/PER
                 (UTC)          (F)     (DEG/KT/KT) (MB)    (FT/S)
PULASKI SHOAL LI NOT AVBL
SAND KEY         NOT AVBL
SOMBRERO KEY     0400            78      CALM  /  6 1014.8S
LONG KEY         0400            79 82  280/  2/  2 1014.8R
MOLASSES REEF    0400            78 79  180/  7/  7 1014.0R
FOWEY ROCKS      0400            78 78  170/ 14/ 15 1014.1R
Buoy 42080       NOT AVBL

$$



USA.gov is the U.S. government's official web portal to all federal, state and local government web resources and services.